ICEYE-X47 (62389 NORAD) Tracking and Keplerian Element Data

This shows tracking and keplerian element data for the satellite.

Feedback or suggestion? Click here.




ElementValue
Catalog62389
NameICEYE-X47
Epoch Orbit678
Epoch Day34.3063939
Epoch Year2025
RAAN126.9772
Inclination44.9955
Eccentricity0.0003019
Argument of Perigee307.1383
Mean Anonmoly52.9215
Mean Motion15.0589899
Decay Rate0.00013722
L11 62389U 24247N 25034.30639390 .00013722 00000+0 94374-3 0 9998
L22 62389 44.9955 126.9772 0003019 307.1383 52.9215 15.05898990 6787



Live tracking and technical data element details for ICEYE-X47 (NORAD 62389). ICEYE-X47 can be tracked NOW for your location showing map with azimuth and elevation plus other details from your city location.







IsCatalogInMostPopularTable: catalog: 62389, numindb: 16
Update: records affected: 1



GetName: 62389 ICEYE-X47

Hit Count: updated at: Sun, 18 May 2025 23:06:23 GMT